Theta_e
348 348 349 348 345 339 344 342 340 341 343 345 350 351 350 346 346 345 344 344 347 347
346 347 347 349 350 348 345 348 345 344 344 346 348 351 349 348 345 344 345 345 346 347
351 351 350 350 350 349 351 352 349 347 344 346 344 347 350 348 345 343 343 344 344 347
346 350 354 353 353 354 354 349 349 348 347 346 345 346 351 348 347 346 344 345 345 347
350 350 350 352 354 354 355 353 351 350 348 347 347 353 352 350 350 347 345 345 345 345
348 347 348 348 351 352 352 352 352 351 352 353 351 354 354 353 350 348 347 344 344 343
343 344 345 346 343 343 344 347 351 353 354 353 355 356 355 355 350 349 343 341 341 342
347 351 350 349 351 353 352 351 352 355 355 353 353 357 353 353 347 340 336 335 335 339
345 345 345 346 346 347 348 349 351 350 350 349 352 343 342 343 344 339 334 332 333 334
335 335 336 336 336 338 342 342 343 345 346 348 350 343 340 343 343 342 338 335 337 335
331 331 330 330 332 334 334 334 337 338 341 342 346 338 338 341 343 338 334 333 332 336
328 325 324 326 325 327 327 328 330 332 333 335 337 331 333 335 340 339 340 342 343 345
325 323 323 324 323 324 324 325 327 327 328 329 320 322 325 328 336 335 337 339 341 332
325 324 325 321 322 323 325 324 321 320 323 321 319 317 320 323 327 331 332 333 334 333
Wind_Speed
10 8 7 7 7 6 7 6 8 8 8 9 9 7 6 5 7 7 7 7 6 4
10 10 8 8 6 8 8 6 11 12 10 9 6 6 7 6 7 6 7 7 6 5
10 10 8 6 9 8 8 11 11 11 9 7 6 6 7 6 6 7 6 5 6 5
9 8 7 8 9 9 6 7 9 10 10 10 10 10 9 7 7 9 7 6 6 7
9 9 10 10 10 9 10 7 8 8 8 9 10 10 11 10 9 10 8 9 8 8
9 7 8 8 9 7 7 9 7 7 8 9 9 9 10 11 11 10 10 7 7 8
4 5 5 5 4 5 7 8 8 8 9 8 7 9 10 11 10 7 4 4 6 7
4 4 4 3 2 2 2 1 4 5 6 5 5 5 8 10 7 7 8 4 8 10
7 7 5 5 5 5 5 5 5 6 4 4 4 7 8 3 6 11 14 13 11 10
6 7 6 6 6 7 6 5 6 5 5 5 5 7 6 6 4 7 9 10 7 4
6 6 6 7 6 6 5 6 5 6 6 5 4 8 3 6 4 5 7 7 7 6
6 6 6 6 6 4 5 5 5 4 6 7 8 14 8 4 3 4 6 5 6 7
4 4 4 3 4 3 3 4 5 6 6 10 8 13 16 4 2 4 4 5 6 5
2 3 2 2 3 3 4 5 6 6 5 6 6 8 12 11 5 2 3 3 3 1
Wind_Direction
205 213 210 193 161 190 198 210 223 234 229 231 232 220 200 193 196 205 218 211 212 211
205 199 207 205 202 175 200 210 226 226 225 233 225 226 197 206 204 198 211 215 220 216
211 210 198 200 222 210 190 198 210 223 223 227 234 227 198 207 199 201 227 213 210 215
205 194 190 197 225 231 197 200 194 205 212 215 220 228 206 212 196 208 214 226 210 226
199 198 206 211 213 222 235 217 210 204 213 217 216 204 202 204 205 210 216 225 223 225
208 201 212 212 219 212 224 239 229 207 214 214 215 208 206 204 202 204 214 220 223 242
217 207 227 230 221 235 237 233 233 224 223 219 210 213 216 214 217 200 85 15 282 248
95 97 97 99 97 57 7 13 235 226 229 233 223 219 223 236 155 124 93 354 247 260
59 52 46 50 45 34 23 30 42 25 2 309 269 289 265 267 155 162 178 200 226 243
62 60 47 44 45 39 29 17 17 6 352 333 313 306 283 177 200 186 207 220 239 260
56 44 31 35 35 35 28 26 26 17 7 351 337 1 278 195 197 195 212 233 251 257
49 39 34 33 22 13 17 7 1 349 353 357 355 356 317 264 233 236 242 239 244 248
52 52 51 38 8 4 19 12 360 6 16 55 72 42 35 342 279 281 281 280 277 56
51 80 87 31 16 357 27 56 50 49 52 57 40 29 37 39 47 22 348 355 352 41